sat.trackr.live / text

‹ back to catalog

STARLINK-32621

NORAD 62303 · 2024-239C

PAYLOAD ACTIVE UNKNOWN

§ Identity

Operator
Country
US
Launch date
2024-12-13
Launch site
AFWTR
Launch vehicle
Mass (kg)
RCS (m²)

Purposes: comms

External: N2YO · Heavens-Above · Gunter

§ Orbital elements

Epoch: 2026-09-21T12:00:37.145952Z

Period
93.85 min
Inclination
53.1625°
Eccentricity
0.0002433
Mean motion
15.34412866 rev/d
Perigee alt
461.0 km
Apogee alt
464.3 km
Semi-major
6,840.8 km
B*
6.4462e-4
RAAN
348.7641°
Arg perigee
89.2427°
Mean anomaly
270.8855°
Rev number
9,958

§ Raw data

STARLINK-326211 62303U 24239C   26264.50042993  .00021475  00000+0  64462-3 0  99992 62303  53.1625 348.7641 0002433  89.2427 270.8855 15.34412866 99581

JSON: /api/v1/satellites/62303 · /tle

For live sub-satellite position, see the globe view (requires WebGL).

§ Visibility from observer

Set your observer location to see the next 7 days of passes ≥ 10°. The values pass through the URL so the page stays shareable.

No JS? Fill the form by hand. The geolocation button needs JavaScript.